Cocoa Beach, FL

4:50 AM EDT on April 29, 2017 (GMT -0400)
Patrick Air Force Base

Weather History for KCOF - November, 2013

Change the Weather History Date:

Sunday, November 17, 2013

  Actual Average Record
Temperature  
Mean Temperature 77 °F -  
Max Temperature 81 °F 75 °F 86 °F (2014)
Min Temperature 73 °F 63 °F 39 °F (2004)
Cooling Degree Days 12    
Growing Degree Days 27 (Base 50)    
Moisture  
Dew Point 70 °F    
Average Humidity 79    
Maximum Humidity 87    
Minimum Humidity 67    
Precipitation  
Precipitation 0.00 in - - ()
Sea Level Pressure  
Sea Level Pressure 30.07 in    
Wind  
Wind Speed 9 mph (SE)    
Max Wind Speed 14 mph    
Max Gust Speed -    
Visibility 10 miles    
Events      
Averages and records for this station are not official NWS values.
T = Trace of Precipitation, MM = Missing Value Source: NWS Daily Summary

Daily Weather History Graph

Daily Weather History Graph

Search for Another Location

Airport or City:

Trip Planner

Search our weather history database for the weather conditions in past years. The results will help you decide how hot, cold, wet, or windy it might be!

Date:

Astronomy

Nov. 17, 2013 Rise Set
Actual Time 6:46 AM EST 5:28 PM EST
Civil Twilight 6:21 AM EST 5:53 PM EST
Nautical Twilight 5:52 AM EST 6:21 PM EST
Astronomical Twilight 5:24 AM EST 6:50 PM EST
Moon 5:44 PM EST (11/17) 6:39 AM EST (11/17)
Length of Visible Light 11h 32m
Length of Day
10h 42m
Full, 100% of the Moon is Illuminated
Nov 17
Full
Nov 25
Last Quarter
Dec 2
New
Dec 9
First Quarter
Dec 17
Full

Hourly Weather History & Observations

Time (EST) Temp. Heat Index Dew Point Humidity Pressure Visibility Wind Dir Wind Speed Gust Speed Precip Events Conditions
12:58 AM 73.0 °F - 67.6 °F 83% 30.09 in - East 9.2 mph - N/A   Scattered Clouds
1:58 AM 73.6 °F - 69.6 °F 87% 30.09 in 10.0 mi East 9.2 mph - N/A   Scattered Clouds
2:58 AM 73.8 °F - 68.9 °F 85% 30.08 in 10.0 mi East 5.8 mph - N/A   Overcast
3:58 AM 74.3 °F - 69.6 °F 85% 30.06 in 10.0 mi East 5.8 mph - N/A   Mostly Cloudy
4:58 AM 74.3 °F - 70.0 °F 86% 30.06 in 10.0 mi ESE 4.6 mph - N/A   Mostly Cloudy
5:58 AM 73.8 °F - 69.6 °F 87% 30.06 in 10.0 mi SE 6.9 mph - N/A   Overcast
6:58 AM 73.9 °F - 68.9 °F 84% 30.09 in 10.0 mi SE 8.1 mph - N/A   Clear
7:58 AM 75.7 °F - 69.3 °F 80% 30.09 in 10.0 mi SSE 8.1 mph - N/A   Clear
8:58 AM 77.9 °F - 69.3 °F 75% 30.12 in 10.0 mi SSE 8.1 mph - N/A   Clear
9:58 AM 79.2 °F - 69.1 °F 71% 30.12 in 10.0 mi SSE 9.2 mph - N/A   Clear
10:58 AM 79.5 °F - 69.1 °F 70% 30.12 in 10.0 mi SE 10.4 mph - N/A   Clear
11:58 AM 81.7 °F 85.2 °F 69.8 °F 67% 30.11 in 10.0 mi SSE 10.4 mph - N/A   Clear
12:58 PM 81.0 °F 84.1 °F 69.3 °F 67% 30.08 in 10.0 mi SSE 12.7 mph - N/A   Clear
1:58 PM 80.6 °F 83.9 °F 69.8 °F 70% 30.06 in 10.0 mi SE 13.8 mph - N/A   Clear
2:58 PM 79.7 °F - 69.6 °F 71% 30.04 in 10.0 mi SE 11.5 mph - N/A   Clear
3:58 PM 79.0 °F - 70.2 °F 74% 30.04 in 10.0 mi SE 11.5 mph - N/A   Clear
4:58 PM 77.2 °F - 70.2 °F 79% 30.04 in 10.0 mi SE 10.4 mph - N/A   Clear
5:58 PM 75.6 °F - 69.4 °F 81% 30.06 in 10.0 mi SE 8.1 mph - N/A   Clear
6:58 PM 75.0 °F - 70.0 °F 84% 30.06 in 10.0 mi SSE 6.9 mph - N/A   Clear
7:58 PM 75.0 °F - 70.0 °F 84% 30.06 in 10.0 mi SSE 8.1 mph - N/A   Clear
8:58 PM 75.2 °F - 70.2 °F 84% 30.08 in 10.0 mi SSE 10.4 mph - N/A   Clear
9:58 PM 75.2 °F - 70.3 °F 85% 30.06 in 10.0 mi SSE 13.8 mph - N/A   Clear
10:58 PM 75.4 °F - 70.0 °F 83% 30.06 in 10.0 mi South 10.4 mph - N/A   Partly Cloudy
11:58 PM 75.6 °F - 69.8 °F 82% 30.06 in 10.0 mi SSE 6.9 mph - N/A   Partly Cloudy